FW1349 Weather Reports


Display with metric or nautical units.
time (UTC)temp
F
wind
direction
speed
MPH
gust
MPH
rain 1hr
in
rain 24hr
in
rain mn
in
humidity
%
barometer
mb
20260902171016 82 158 1.0 5.0 0.00 0.07 0.07 63
20260902170016 82 225 1.0 4.0 0.00 0.07 0.07 65
20260902165016 81 45 1.0 3.0 0.00 0.07 0.07 64
20260902164016 81 180 1.0 3.0 0.00 0.07 0.07 64
20260902163016 81 90 1.0 3.0 0.00 0.07 0.07 66
20260902162016 80 0.0 1.0 0.00 0.07 0.07 65
20260902161015 80 90 1.0 3.0 0.00 0.07 0.07 67
20260902160015 80 68 1.0 3.0 0.00 0.07 0.07 68
20260902155036 79 113 1.0 2.0 0.00 0.07 0.07 68
20260902154016 78 270 2.0 5.0 0.00 0.07 0.07 69
20260902153015 77 45 2.0 4.0 0.00 0.07 0.07 71
20260902152015 77 135 1.0 2.0 0.00 0.07 0.07 74
20260902151018 76 293 1.0 4.0 0.00 0.07 0.07 76
20260902150017 75 293 1.0 3.0 0.00 0.07 0.07 78
20260902145017 73 0.0 2.0 0.00 0.07 0.07 80
20260902144038 72 0.0 3.0 0.00 0.07 0.07 84
20260902143018 70 0.0 2.0 0.00 0.07 0.07 88
20260902142017 69 0.0 2.0 0.00 0.07 0.07 89
20260902141017 68 90 1.0 3.0 0.00 0.07 0.07 90
20260902140017 68 0.0 2.0 0.00 0.07 0.07 90
20260902135017 68 0.0 2.0 0.00 0.07 0.07 90
20260902134038 67 0.0 1.0 0.00 0.07 0.07 91
20260902133018 67 135 1.0 3.0 0.00 0.07 0.07 91
20260902132017 67 0.0 2.0 0.00 0.07 0.07 92
20260902131018 66 0.0 2.0 0.00 0.07 0.07 92
20260902130017 66 0.0 0.0 0.00 0.07 0.07 92
20260902125017 66 0.0 0.0 0.00 0.07 0.07 92
20260902124018 66 0.0 0.0 0.00 0.07 0.07 92
20260902123016 66 0.0 0.0 0.00 0.07 0.07 92
20260902122017 66 0.0 0.0 0.00 0.07 0.07 92
20260902121017 66 0.0 0.0 0.00 0.07 0.07 91
20260902120016 66 0.0 0.0 0.00 0.07 0.07 91
20260902115017 66 0.0 0.0 0.00 0.07 0.07 91
20260902114037 66 0.0 0.0 0.00 0.07 0.07 91
20260902113017 66 0.0 0.0 0.00 0.07 0.07 91
20260902112016 66 0.0 0.0 0.00 0.07 0.07 90
20260902111516 66 0.0 0.0 0.00 0.07 0.07 90
20260902110537 66 0.0 0.0 0.00 0.07 0.07 90
20260902105516 66 0.0 1.0 0.00 0.07 0.07 90
20260902104537 66 0.0 2.0 0.00 0.07 0.07 90
20260902103516 66 0.0 0.0 0.00 0.07 0.07 90
20260902102517 66 0.0 1.0 0.00 0.07 0.07 90
20260902101536 66 0.0 0.0 0.00 0.07 0.07 90
20260902100516 66 0.0 1.0 0.00 0.07 0.07 90
20260902095536 66 0.0 0.0 0.00 0.07 0.07 90
20260902094517 66 0.0 1.0 0.00 0.07 0.07 89
20260902093537 66 23 1.0 2.0 0.00 0.07 0.07 89
20260902092517 66 248 1.0 4.0 0.00 0.07 0.07 89
20260902091516 66 0.0 3.0 0.00 0.07 0.07 89
20260902090517 66 0.0 0.0 0.00 0.07 0.07 89
20260902085516 66 0.0 0.0 0.00 0.07 0.07 88
20260902084516 67 0 1.0 2.0 0.00 0.07 0.07 88
20260902083537 67 0.0 2.0 0.00 0.07 0.07 88
20260902082557 67 0.0 2.0 0.01 0.07 0.07 88
20260902081515 67 0.0 1.0 0.02 0.07 0.07 88
20260902080516 68 0.0 1.0 0.03 0.07 0.07 88
20260902075536 68 0.0 1.0 0.05 0.07 0.07 87
20260902074515 68 0.0 1.0 0.06 0.07 0.07 86
20260902073515 68 0.0 2.0 0.06 0.07 0.07 85
20260902072516 69 0.0 3.0 0.06 0.06 0.06 85
20260902071516 69 0.0 1.0 0.05 0.05 0.05 85
20260902070517 70 0.0 2.0 0.04 0.04 0.04 85
20260902065517 70 225 1.0 2.0 0.02 0.02 0.02 86
20260902064517 71 158 2.0 5.0 0.01 0.01 0.01 87
20260902063518 71 180 2.0 6.0 0.01 0.01 0.01 87
20260902062517 72 0.0 1.0 0.00 0.00 0.00 87
20260902061517 71 0.0 0.0 0.00 0.00 0.00 86
20260902060518 71 0.0 0.0 0.00 0.00 0.00 86
20260902055517 72 0.0 2.0 0.00 0.00 0.00 87
20260902054537 72 0.0 0.0 0.00 0.00 0.00 87
20260902053518 72 0.0 0.0 0.00 0.00 0.00 87
20260902052517 72 0.0 1.0 0.00 0.00 0.00 86
20260902051538 72 68 1.0 2.0 0.00 0.00 0.00 85
20260902050517 72 0.0 0.0 0.00 0.00 0.00 85
20260902045536 72 0.0 0.0 0.00 0.00 0.00 84
20260902044557 72 0.0 0.0 0.00 0.00 0.00 83
20260902043516 72 0.0 0.0 0.00 0.00 0.00 83
20260902042516 72 0.0 0.0 0.00 0.00 0.00 82
20260902041517 73 0.0 0.0 0.00 0.00 0.00 81
20260902040537 73 0.0 0.0 0.00 0.00 0.00 81
20260902035516 73 0.0 0.0 0.00 0.00 0.00 81
20260902034516 73 0.0 0.0 0.00 0.00 0.00 81
20260902033537 74 0.0 0.0 0.00 0.00 0.00 80
20260902032536 74 0.0 0.0 0.00 0.00 0.00 79
20260902031537 74 0.0 0.0 0.00 0.00 0.00 77
20260902030516 75 0.0 0.0 0.00 0.00 0.00 76
20260902025516 75 0.0 0.0 0.00 0.00 0.00 75
20260902024516 75 0.0 0.0 0.00 0.00 0.00 76
20260902023516 76 0.0 0.0 0.00 0.00 0.00 75
20260902022515 76 0.0 0.0 0.00 0.00 0.00 74
20260902021556 76 0.0 0.0 0.00 0.00 0.00 73
20260902020516 77 0.0 0.0 0.00 0.00 0.00 73
20260902015536 77 0.0 0.0 0.00 0.00 0.00 71
20260902014515 78 0.0 0.0 0.00 0.00 0.00 71
20260902013515 78 0.0 0.0 0.00 0.00 0.00 70
20260902012536 79 0.0 0.0 0.00 0.00 0.00 69
20260902011515 79 0.0 0.0 0.00 0.00 0.00 68
20260902010516 80 0.0 0.0 0.00 0.00 0.00 67
20260902005517 80 0.0 0.0 0.00 0.00 0.00 66
20260902004517 81 0.0 0.0 0.00 0.00 0.00 66
20260902003518 82 0.0 0.0 0.00 0.00 0.00 64
20260902002517 82 0.0 0.0 0.00 0.00 0.00 63
20260902001517 83 0.0 1.0 0.00 0.00 0.00 62
20260902000517 83 0.0 1.0 0.00 0.00 0.00 61
20260901235517 83 0.0 2.0 0.00 0.00 0.00 58
20260901234517 83 68 1.0 2.0 0.00 0.00 0.00 58
20260901233558 84 0.0 2.0 0.00 0.00 0.00 57
20260901232517 84 0.0 1.0 0.00 0.00 0.00 57
20260901231517 84 0.0 1.0 0.00 0.00 0.00 57
20260901230538 84 0.0 3.0 0.00 0.00 0.00 55
20260901225517 85 68 1.0 2.0 0.00 0.00 0.00 54
20260901224517 85 68 1.0 2.0 0.00 0.00 0.00 54
20260901223517 86 68 1.0 2.0 0.00 0.00 0.00 53
20260901222537 86 68 1.0 5.0 0.00 0.00 0.00 52
20260901221537 86 0.0 2.0 0.00 0.00 0.00 52
20260901220516 86 68 1.0 3.0 0.00 0.00 0.00 52
20260901215516 86 68 1.0 3.0 0.00 0.00 0.00 53
20260901214517 86 0.0 2.0 0.00 0.00 0.00 54
20260901213517 86 0.0 3.0 0.00 0.00 0.00 54
20260901212516 86 293 1.0 2.0 0.00 0.00 0.00 55
20260901211517 86 0.0 3.0 0.00 0.00 0.00 56
20260901210516 86 248 1.0 2.0 0.00 0.00 0.00 54
20260901205518 87 0.0 1.0 0.00 0.00 0.00 54
20260901204516 87 248 1.0 3.0 0.00 0.00 0.00 53
20260901203516 87 68 1.0 3.0 0.00 0.00 0.00 53
20260901202516 87 225 1.0 3.0 0.00 0.00 0.00 53
20260901201516 87 270 1.0 3.0 0.00 0.00 0.00 52
20260901200516 87 68 1.0 2.0 0.00 0.00 0.00 50
20260901195516 88 68 1.0 3.0 0.00 0.00 0.00 48
20260901194517 88 0.0 2.0 0.00 0.00 0.00 50
20260901193516 88 68 1.0 3.0 0.00 0.00 0.00 49
20260901192537 88 225 1.0 3.0 0.00 0.00 0.00 48
20260901191537 89 0.0 4.0 0.00 0.00 0.00 46
20260901190537 89 338 1.0 3.0 0.00 0.00 0.00 46
20260901185516 90 23 1.0 3.0 0.00 0.00 0.00 46
20260901184536 90 203 2.0 3.0 0.00 0.00 0.00 45
20260901183516 89 90 2.0 4.0 0.00 0.00 0.00 47
20260901182515 89 68 2.0 3.0 0.00 0.00 0.00 47
20260901181516 88 90 1.0 3.0 0.00 0.00 0.00 46
20260901180516 87 90 1.0 3.0 0.00 0.00 0.00 46
20260901175516 87 90 1.0 3.0 0.00 0.00 0.00 47
20260901174516 88 225 1.0 6.0 0.00 0.00 0.00 45
20260901173515 87 225 1.0 4.0 0.00 0.00 0.00 47
20260901172535 87 180 1.0 4.0 0.00 0.00 0.00 48
20260901171516 87 203 2.0 4.0 0.00 0.00 0.00 49